Date,TemperatureHighF,TemperatureAvgF,TemperatureLowF,DewpointHighF,DewpointAvgF,DewpointLowF,HumidityHigh,HumidityAvg,HumidityLow,PressureMaxIn,PressureMinIn,WindSpeedMaxMPH,WindSpeedAvgMPH,GustSpeedMaxMPH,PrecipitationSumIn
2013-8-1,102.0,92.3,81.9,76.8,72.3,68.7,74,54,37,29.97,29.84,14,5,0,0.00
2013-8-2,103.5,92.6,81.9,72.5,69.6,65.8,66,49,33,29.91,29.82,18,8,0,0.00
2013-8-3,101.8,90.9,80.1,72.3,68.8,65.0,69,50,34,29.97,29.88,20,8,0,0.00
2013-8-4,101.7,90.8,81.1,73.3,69.8,65.1,72,52,35,30.03,29.89,16,7,0,0.00
2013-8-5,103.2,91.7,81.9,71.0,68.4,63.9,66,48,33,29.97,29.81,20,7,0,0.00
2013-8-6,104.4,92.5,80.6,71.2,67.9,63.8,69,47,31,29.87,29.75,21,9,0,0.00
2013-8-7,105.1,92.6,80.4,73.5,69.3,65.3,70,49,32,29.86,29.72,25,9,0,0.00
2013-8-8,100.8,91.1,81.1,73.8,68.9,62.6,72,50,34,29.85,29.73,18,7,0,0.00
2013-8-9,102.6,89.7,81.9,72.8,67.8,61.3,66,50,30,29.93,29.78,15,5,0,0.02
2013-8-10,97.7,87.1,77.5,75.9,71.8,68.1,84,62,42,30.04,29.92,21,7,0,0.00
2013-8-11,101.1,89.4,79.0,74.1,69.9,67.0,71,54,38,30.04,29.91,16,4,0,0.00
2013-8-12,99.9,89.8,79.9,73.2,69.9,66.9,71,53,38,30.02,29.87,14,6,0,0.00
2013-8-13,97.3,86.4,78.4,73.1,69.9,66.1,80,59,45,29.98,29.85,29,6,0,0.15
2013-8-14,89.8,79.2,74.5,75.9,72.6,69.8,89,81,61,30.01,29.90,16,5,0,1.45
2013-8-15,89.6,79.6,73.3,70.5,67.2,63.3,81,67,51,30.04,29.92,14,5,0,0.00
2013-8-16,88.7,79.2,69.8,69.1,65.0,61.7,83,63,49,30.03,29.92,26,6,0,0.05
2013-8-17,89.8,79.4,68.9,64.8,61.7,59.5,74,56,41,30.08,29.93,18,6,0,0.00
2013-8-18,91.0,81.4,71.5,67.7,63.2,59.4,71,55,42,30.08,29.95,13,4,0,0.00
2013-8-19,94.5,83.9,73.8,68.5,63.8,60.9,70,52,36,30.04,29.90,10,3,0,0.00
2013-8-20,95.7,85.6,73.6,66.7,60.7,54.7,69,46,26,30.01,29.91,14,4,3,0.00
2013-8-21,94.1,85.8,76.5,71.3,63.9,55.2,67,49,37,30.06,29.94,16,6,12,0.00
2013-8-22,97.9,89.3,78.8,68.3,64.7,61.1,65,45,34,30.04,29.89,12,5,12,0.00
2013-8-23,99.5,89.9,81.0,71.3,66.1,61.8,65,47,33,30.00,29.85,13,5,0,0.00
2013-8-24,98.4,89.1,79.9,70.1,65.2,61.5,63,47,30,30.03,29.92,13,4,0,0.00
2013-8-25,97.0,88.6,79.9,69.1,64.8,61.3,61,46,34,30.11,30.00,22,7,0,0.00
2013-8-26,96.1,87.1,78.3,67.8,64.5,59.6,68,48,30,30.13,30.01,20,9,10,0.00
2013-8-27,93.8,82.9,75.2,69.5,66.7,64.5,76,59,40,30.10,29.99,16,7,0,0.00
2013-8-28,98.1,86.1,74.8,70.0,64.4,60.4,73,51,31,30.08,29.95,18,4,0,0.00
2013-8-29,100.6,89.5,78.3,67.0,62.4,60.1,58,42,28,30.05,29.92,10,3,0,0.00
2013-8-30,101.5,91.0,80.6,67.1,61.4,57.5,54,39,25,29.98,29.83,10,4,0,0.00
2013-8-31,101.8,91.3,79.5,66.6,61.6,57.9,57,39,26,29.87,29.75,14,5,0,0.00